• In Germany
  • List of Countries
  • For 7 days
  • Water Temperature
  • Satellite Maps
  • Weather Map
  • Weather Widgets
  • user-avatar
    Login

    Hourly Weather Etchmiadzin

    Today, 22 September, Friday

    Time Temperature Precipitation Wind Pressure Humidity
    00:00 +24°C° 0.1 mm 2 mps 687 mmHg 46%
    01:00 +23°C° 0 mm 2 mps 687 mmHg 48%
    02:00 +23°C° 0 mm 2 mps 686 mmHg 50%
    03:00 +23°C° 0 mm 1 mps 686 mmHg 46%
    04:00 +22°C° 0 mm 1 mps 686 mmHg 45%
    05:00 +22°C° 0 mm 1 mps 686 mmHg 44%
    06:00 +22°C° 0 mm 1 mps 686 mmHg 43%
    07:00 +24°C° 0 mm 2 mps 686 mmHg 38%
    08:00 +27°C° 0 mm 2 mps 686 mmHg 32%
    09:00 +29°C° 0 mm 2 mps 686 mmHg 26%
    10:00 +30°C° 0 mm 2 mps 686 mmHg 24%
    11:00 +31°C° 0 mm 3 mps 686 mmHg 22%
    12:00 +33°C° 0 mm 3 mps 686 mmHg 20%
    13:00 +34°C° 0.1 mm 3 mps 685 mmHg 20%
    14:00 +34°C° 0.1 mm 2 mps 685 mmHg 19%
    15:00 +34°C° 0.1 mm 2 mps 685 mmHg 19%
    16:00 +31°C° 0.1 mm 2 mps 685 mmHg 22%
    17:00 +29°C° 0.1 mm 2 mps 684 mmHg 26%
    18:00 +27°C° 0.1 mm 1 mps 684 mmHg 29%
    19:00 +26°C° 0 mm 1 mps 685 mmHg 33%
    20:00 +25°C° 0 mm 2 mps 685 mmHg 37%
    21:00 +25°C° 0 mm 2 mps 685 mmHg 41%
    22:00 +24°C° 0 mm 2 mps 686 mmHg 46%
    23:00 +23°C° 0 mm 2 mps 686 mmHg 52%

    Tomorrow, 23 September, Saturday

    Time Temperature Precipitation Wind Pressure Humidity
    00:00 +23°C° 0 mm 2 mps 686 mmHg 57%
    01:00 +21°C° 0 mm 2 mps 686 mmHg 59%
    02:00 +21°C° 0 mm 2 mps 686 mmHg 61%
    03:00 +20°C° 0 mm 2 mps 686 mmHg 62%
    04:00 +20°C° 0 mm 2 mps 686 mmHg 63%
    05:00 +20°C° 0 mm 1 mps 686 mmHg 64%
    06:00 +20°C° 0 mm 1 mps 686 mmHg 65%
    07:00 +22°C° 0 mm 1 mps 686 mmHg 56%
    08:00 +25°C° 0 mm 1 mps 687 mmHg 47%
    09:00 +27°C° 0 mm 1 mps 687 mmHg 38%
    10:00 +28°C° 0 mm 2 mps 687 mmHg 34%
    11:00 +30°C° 0 mm 2 mps 687 mmHg 29%
    12:00 +31°C° 0 mm 3 mps 687 mmHg 25%
    13:00 +31°C° 0.1 mm 3 mps 687 mmHg 24%
    14:00 +31°C° 0.1 mm 3 mps 686 mmHg 23%
    15:00 +33°C° 0.1 mm 3 mps 686 mmHg 23%
    16:00 +29°C° 0.3 mm 2 mps 686 mmHg 28%
    17:00 +27°C° 0.3 mm 2 mps 686 mmHg 33%
    18:00 +25°C° 0.3 mm 1 mps 686 mmHg 37%
    19:00 +24°C° 0.3 mm 1 mps 686 mmHg 43%
    20:00 +24°C° 0.3 mm 2 mps 687 mmHg 48%
    21:00 +23°C° 0.3 mm 2 mps 687 mmHg 53%
    22:00 +21°C° 0.1 mm 2 mps 687 mmHg 57%
    23:00 +21°C° 0.1 mm 2 mps 688 mmHg 60%

    Day after tomorrow, 24 September, Sunday

    Time Temperature Precipitation Wind Pressure Humidity
    00:00 +20°C° 0.1 mm 2 mps 688 mmHg 64%
    01:00 +20°C° 0 mm 2 mps 688 mmHg 66%
    02:00 +19°C° 0 mm 2 mps 688 mmHg 68%
    03:00 +19°C° 0 mm 2 mps 688 mmHg 70%
    04:00 +18°C° 0 mm 2 mps 688 mmHg 71%
    05:00 +18°C° 0 mm 2 mps 688 mmHg 72%
    06:00 +17°C° 0 mm 2 mps 688 mmHg 73%
    07:00 +20°C° 0 mm 2 mps 688 mmHg 64%
    08:00 +23°C° 0 mm 2 mps 689 mmHg 55%
    09:00 +25°C° 0 mm 2 mps 689 mmHg 45%
    10:00 +26°C° 0 mm 2 mps 689 mmHg 41%
    11:00 +28°C° 0 mm 2 mps 689 mmHg 36%
    12:00 +29°C° 0 mm 2 mps 689 mmHg 31%
    13:00 +29°C° 0.1 mm 2 mps 689 mmHg 30%
    14:00 +30°C° 0.1 mm 2 mps 688 mmHg 29%
    15:00 +30°C° 0.1 mm 2 mps 688 mmHg 28%
    16:00 +28°C° 0.2 mm 2 mps 688 mmHg 33%
    17:00 +26°C° 0.2 mm 2 mps 688 mmHg 38%
    18:00 +24°C° 0.2 mm 2 mps 688 mmHg 43%
    19:00 +23°C° 0.2 mm 2 mps 688 mmHg 47%
    20:00 +23°C° 0.2 mm 2 mps 689 mmHg 51%
    21:00 +21°C° 0.2 mm 2 mps 689 mmHg 55%
    22:00 +20°C° 0 mm 2 mps 689 mmHg 56%
    23:00 +19°C° 0 mm 2 mps 689 mmHg 57%

    25 September, Monday

    Time Temperature Precipitation Wind Pressure Humidity
    00:00 +19°C° 0 mm 2 mps 689 mmHg 58%
    01:00 +18°C° 0 mm 2 mps 689 mmHg 60%
    02:00 +18°C° 0 mm 2 mps 689 mmHg 61%
    03:00 +17°C° 0 mm 2 mps 689 mmHg 63%
    04:00 +17°C° 0 mm 2 mps 689 mmHg 65%
    05:00 +17°C° 0 mm 2 mps 689 mmHg 67%
    06:00 +16°C° 0 mm 2 mps 689 mmHg 69%
    07:00 +20°C° 0 mm 1 mps 689 mmHg 61%
    08:00 +22°C° 0 mm 1 mps 689 mmHg 53%
    09:00 +24°C° 0 mm 1 mps 690 mmHg 45%
    10:00 +25°C° 0 mm 1 mps 690 mmHg 40%
    11:00 +27°C° 0 mm 1 mps 689 mmHg 36%
    12:00 +28°C° 0 mm 2 mps 689 mmHg 32%
    13:00 +28°C° 0 mm 2 mps 689 mmHg 30%
    14:00 +29°C° 0 mm 2 mps 688 mmHg 29%
    15:00 +29°C° 0 mm 2 mps 688 mmHg 27%
    16:00 +27°C° 0 mm 1 mps 688 mmHg 31%
    17:00 +25°C° 0 mm 1 mps 688 mmHg 35%
    18:00 +23°C° 0 mm 1 mps 687 mmHg 40%
    19:00 +22°C° 0 mm 1 mps 688 mmHg 44%
    20:00 +21°C° 0 mm 2 mps 688 mmHg 49%
    21:00 +20°C° 0 mm 2 mps 688 mmHg 54%
    22:00 +20°C° 0 mm 2 mps 688 mmHg 57%
    23:00 +19°C° 0 mm 2 mps 688 mmHg 60%

    26 September, Tuesday

    Time Temperature Precipitation Wind Pressure Humidity
    00:00 +19°C° 0 mm 2 mps 688 mmHg 63%
    01:00 +18°C° 0 mm 2 mps 688 mmHg 64%
    02:00 +19°C° 0 mm 1 mps 688 mmHg 65%
    03:00 +18°C° 0 mm 1 mps 688 mmHg 67%
    04:00 +18°C° 0 mm 1 mps 688 mmHg 68%
    05:00 +18°C° 0 mm 1 mps 688 mmHg 69%
    06:00 +16°C° 0 mm 1 mps 688 mmHg 70%
    07:00 +20°C° 0 mm 1 mps 688 mmHg 60%
    08:00 +22°C° 0 mm 1 mps 689 mmHg 50%
    09:00 +24°C° 0 mm 2 mps 689 mmHg 41%
    10:00 +26°C° 0 mm 2 mps 689 mmHg 36%
    11:00 +27°C° 0 mm 2 mps 689 mmHg 32%
    12:00 +28°C° 0 mm 3 mps 689 mmHg 28%
    13:00 +29°C° 0 mm 3 mps 688 mmHg 26%
    14:00 +29°C° 0 mm 3 mps 688 mmHg 24%
    15:00 +29°C° 0 mm 3 mps 688 mmHg 23%
    16:00 +27°C° 0 mm 2 mps 687 mmHg 28%
    17:00 +25°C° 0 mm 2 mps 687 mmHg 32%
    18:00 +23°C° 0 mm 1 mps 687 mmHg 37%
    19:00 +23°C° 0 mm 2 mps 687 mmHg 44%
    20:00 +21°C° 0 mm 2 mps 688 mmHg 50%
    21:00 +20°C° 0 mm 3 mps 688 mmHg 56%
    22:00 +20°C° 0 mm 3 mps 688 mmHg 59%
    23:00 +19°C° 0 mm 2 mps 688 mmHg 62%

    27 September, Wednesday

    Time Temperature Precipitation Wind Pressure Humidity
    00:00 +19°C° 0 mm 2 mps 688 mmHg 65%
    01:00 +19°C° 0 mm 2 mps 687 mmHg 66%
    02:00 +18°C° 0 mm 2 mps 687 mmHg 66%
    03:00 +18°C° 0 mm 2 mps 687 mmHg 67%
    04:00 +17°C° 0 mm 2 mps 687 mmHg 67%
    05:00 +17°C° 0 mm 2 mps 687 mmHg 67%
    06:00 +18°C° 0 mm 1 mps 687 mmHg 67%
    07:00 +19°C° 0 mm 2 mps 687 mmHg 57%
    08:00 +23°C° 0 mm 2 mps 687 mmHg 47%
    09:00 +25°C° 0 mm 2 mps 688 mmHg 37%
    10:00 +27°C° 0 mm 3 mps 687 mmHg 33%
    11:00 +28°C° 0 mm 3 mps 687 mmHg 30%
    12:00 +29°C° 0 mm 4 mps 687 mmHg 26%
    13:00 +30°C° 0 mm 4 mps 686 mmHg 26%
    14:00 +30°C° 0 mm 4 mps 686 mmHg 25%
    15:00 +30°C° 0 mm 4 mps 685 mmHg 24%
    16:00 +28°C° 0 mm 3 mps 685 mmHg 29%
    17:00 +26°C° 0 mm 2 mps 685 mmHg 33%
    18:00 +24°C° 0 mm 2 mps 685 mmHg 37%
    19:00 +23°C° 0 mm 2 mps 686 mmHg 42%
    20:00 +22°C° 0 mm 3 mps 686 mmHg 47%
    21:00 +21°C° 0 mm 3 mps 686 mmHg 53%
    22:00 +20°C° 0 mm 3 mps 686 mmHg 56%
    23:00 +20°C° 0 mm 3 mps 686 mmHg 60%
    Show more